Year,Month,Day,Hour,Minute,Value (Times are PST for windgust in km/hr)
2012,03,14,00,00,6.40
2012,03,14,00,01,8.10
2012,03,14,00,02,8.10
2012,03,14,00,03,6.40
2012,03,14,00,04,6.40
2012,03,14,00,05,3.20
2012,03,14,00,06,1.60
2012,03,14,00,08,3.20
2012,03,14,00,09,3.20
2012,03,14,00,10,1.60
2012,03,14,00,11,3.20
2012,03,14,00,14,3.20
2012,03,14,00,15,1.60
2012,03,14,00,16,4.80
2012,03,14,00,17,4.80
2012,03,14,00,18,4.80
2012,03,14,00,19,4.80
2012,03,14,00,20,6.40
2012,03,14,00,21,4.80
2012,03,14,00,22,6.40
2012,03,14,00,23,6.40
2012,03,14,00,24,6.40
2012,03,14,00,25,6.40
2012,03,14,00,26,6.40
2012,03,14,00,27,6.40
2012,03,14,00,28,6.40
2012,03,14,00,29,4.80
2012,03,14,00,30,3.20
2012,03,14,00,31,3.20
2012,03,14,00,32,3.20
2012,03,14,00,33,3.20
2012,03,14,00,34,4.80
2012,03,14,00,35,4.80
2012,03,14,00,36,6.40
2012,03,14,00,37,4.80
2012,03,14,00,38,4.80
2012,03,14,00,39,6.40
2012,03,14,00,40,3.20
2012,03,14,00,41,4.80
2012,03,14,00,42,4.80
2012,03,14,00,43,3.20
2012,03,14,00,45,3.20
2012,03,14,00,46,3.20
2012,03,14,00,47,3.20
2012,03,14,00,48,4.80
2012,03,14,00,49,6.40
2012,03,14,00,50,4.80
2012,03,14,00,51,6.40
2012,03,14,00,52,6.40
2012,03,14,00,53,4.80
2012,03,14,00,54,4.80
2012,03,14,00,55,4.80
2012,03,14,00,56,3.20
2012,03,14,00,57,3.20
2012,03,14,00,58,3.20
2012,03,14,00,59,1.60
2012,03,14,01,05,3.20
2012,03,14,01,06,3.20
2012,03,14,01,07,3.20
2012,03,14,01,08,3.20
2012,03,14,01,09,4.80
2012,03,14,01,10,3.20
2012,03,14,01,11,3.20
2012,03,14,01,15,4.80
2012,03,14,01,16,4.80
2012,03,14,01,17,4.80
2012,03,14,01,18,4.80
2012,03,14,01,19,4.80
2012,03,14,01,20,4.80
2012,03,14,01,21,4.80
2012,03,14,01,22,4.80
2012,03,14,01,23,4.80
2012,03,14,01,24,6.40
2012,03,14,01,25,3.20
2012,03,14,01,26,3.20
2012,03,14,01,27,3.20
2012,03,14,01,29,3.20
2012,03,14,01,30,4.80
2012,03,14,01,31,6.40
2012,03,14,01,32,4.80
2012,03,14,01,33,3.20
2012,03,14,01,34,3.20
2012,03,14,01,35,6.40
2012,03,14,01,36,4.80
2012,03,14,01,40,1.60
2012,03,14,01,41,1.60
2012,03,14,01,42,3.20
2012,03,14,01,44,1.60
2012,03,14,01,45,1.60
2012,03,14,01,49,3.20
2012,03,14,01,50,1.60
2012,03,14,01,54,1.60
2012,03,14,01,55,3.20
2012,03,14,01,56,1.60
2012,03,14,01,57,4.80
2012,03,14,01,58,4.80
2012,03,14,01,59,3.20
2012,03,14,02,00,4.80
2012,03,14,02,01,4.80
2012,03,14,02,02,1.60
2012,03,14,02,12,1.60
2012,03,14,02,13,3.20
2012,03,14,02,15,4.80
2012,03,14,02,16,8.10
2012,03,14,02,17,6.40
2012,03,14,02,18,4.80
2012,03,14,02,19,4.80
2012,03,14,02,20,3.20
2012,03,14,02,25,3.20
2012,03,14,02,29,1.60
2012,03,14,02,37,8.10
2012,03,14,02,38,3.20
2012,03,14,02,39,1.60
2012,03,14,02,40,3.20
2012,03,14,02,41,6.40
2012,03,14,02,42,6.40
2012,03,14,02,43,4.80
2012,03,14,02,44,4.80
2012,03,14,02,45,1.60
2012,03,14,02,46,3.20
2012,03,14,02,47,3.20
2012,03,14,02,48,3.20
2012,03,14,02,49,3.20
2012,03,14,02,50,1.60
2012,03,14,02,52,4.80
2012,03,14,02,53,6.40
2012,03,14,02,54,6.40
2012,03,14,02,55,6.40
2012,03,14,02,56,4.80
2012,03,14,02,57,4.80
2012,03,14,02,58,4.80
2012,03,14,02,59,6.40
2012,03,14,03,00,4.80
2012,03,14,03,01,3.20
2012,03,14,03,02,3.20
2012,03,14,03,09,3.20
2012,03,14,03,10,1.60
2012,03,14,03,11,4.80
2012,03,14,03,12,4.80
2012,03,14,03,13,3.20
2012,03,14,03,14,3.20
2012,03,14,03,15,1.60
2012,03,14,03,16,3.20
2012,03,14,03,17,3.20
2012,03,14,03,18,1.60
2012,03,14,03,19,3.20
2012,03,14,03,20,3.20
2012,03,14,03,21,3.20
2012,03,14,03,22,4.80
2012,03,14,03,23,4.80
2012,03,14,03,24,4.80
2012,03,14,03,25,3.20
2012,03,14,03,26,4.80
2012,03,14,03,27,4.80
2012,03,14,03,28,4.80
2012,03,14,03,29,6.40
2012,03,14,03,30,4.80
2012,03,14,03,31,6.40
2012,03,14,03,32,4.80
2012,03,14,03,33,4.80
2012,03,14,03,34,4.80
2012,03,14,03,35,4.80
2012,03,14,03,36,4.80
2012,03,14,03,37,4.80
2012,03,14,03,38,4.80
2012,03,14,03,39,4.80
2012,03,14,03,40,4.80
2012,03,14,03,41,4.80
2012,03,14,03,42,4.80
2012,03,14,03,43,4.80
2012,03,14,03,44,4.80
2012,03,14,03,45,4.80
2012,03,14,03,46,4.80
2012,03,14,03,47,4.80
2012,03,14,03,48,6.40
2012,03,14,03,49,6.40
2012,03,14,03,50,8.10
2012,03,14,03,51,8.10
2012,03,14,03,52,6.40
2012,03,14,03,53,6.40
2012,03,14,03,54,8.10
2012,03,14,03,55,6.40
2012,03,14,03,56,6.40
2012,03,14,03,57,4.80
2012,03,14,03,58,4.80
2012,03,14,03,59,4.80
2012,03,14,04,00,4.80
2012,03,14,04,01,4.80
2012,03,14,04,02,4.80
2012,03,14,04,03,6.40
2012,03,14,04,04,4.80
2012,03,14,04,05,4.80
2012,03,14,04,06,4.80
2012,03,14,04,07,3.20
2012,03,14,04,08,3.20
2012,03,14,04,12,1.60
2012,03,14,04,13,3.20
2012,03,14,04,14,4.80
2012,03,14,04,15,4.80
2012,03,14,04,16,4.80
2012,03,14,04,17,8.10
2012,03,14,04,18,6.40
2012,03,14,04,19,4.80
2012,03,14,04,20,4.80
2012,03,14,04,21,4.80
2012,03,14,04,22,4.80
2012,03,14,04,23,4.80
2012,03,14,04,24,4.80
2012,03,14,04,25,4.80
2012,03,14,04,26,6.40
2012,03,14,04,27,4.80
2012,03,14,04,28,4.80
2012,03,14,04,29,4.80
2012,03,14,04,30,3.20
2012,03,14,04,31,3.20
2012,03,14,04,32,4.80
2012,03,14,04,33,3.20
2012,03,14,04,34,4.80
2012,03,14,04,35,4.80
2012,03,14,04,36,4.80
2012,03,14,04,37,6.40
2012,03,14,04,38,6.40
2012,03,14,04,39,6.40
2012,03,14,04,40,4.80
2012,03,14,04,41,6.40
2012,03,14,04,42,4.80
2012,03,14,04,43,4.80
2012,03,14,04,44,6.40
2012,03,14,04,45,6.40
2012,03,14,04,46,6.40
2012,03,14,04,47,6.40
2012,03,14,04,48,3.20
2012,03,14,04,49,4.80
2012,03,14,04,50,3.20
2012,03,14,04,51,11.30
2012,03,14,04,52,6.40
2012,03,14,04,53,3.20
2012,03,14,04,54,1.60
2012,03,14,04,55,6.40
2012,03,14,04,56,6.40
2012,03,14,04,57,9.60
2012,03,14,04,58,9.60
2012,03,14,04,59,20.90
2012,03,14,05,00,14.50
2012,03,14,05,01,20.90
2012,03,14,05,02,19.30
2012,03,14,05,03,22.50
2012,03,14,05,04,20.90
2012,03,14,05,05,24.20
2012,03,14,05,06,22.50
2012,03,14,05,07,24.20
2012,03,14,05,08,25.70
2012,03,14,05,09,19.30
2012,03,14,05,10,24.20
2012,03,14,05,11,27.40
2012,03,14,05,12,22.50
2012,03,14,05,13,24.20
2012,03,14,05,14,27.40
2012,03,14,05,15,25.70
2012,03,14,05,16,19.30
2012,03,14,05,17,19.30
2012,03,14,05,18,32.20
2012,03,14,05,19,24.20
2012,03,14,05,20,20.90
2012,03,14,05,21,25.70
2012,03,14,05,22,29.00
2012,03,14,05,23,22.50
2012,03,14,05,24,16.10
2012,03,14,05,25,17.70
2012,03,14,05,26,17.70
2012,03,14,05,27,25.70
2012,03,14,05,28,22.50
2012,03,14,05,29,25.70
2012,03,14,05,30,25.70
2012,03,14,05,31,20.90
2012,03,14,05,32,24.20
2012,03,14,05,33,27.40
2012,03,14,05,34,17.70
2012,03,14,05,35,25.70
2012,03,14,05,36,29.00
2012,03,14,05,37,25.70
2012,03,14,05,38,20.90
2012,03,14,05,39,22.50
2012,03,14,05,40,30.60
2012,03,14,05,41,24.20
2012,03,14,05,42,29.00
2012,03,14,05,43,27.40
2012,03,14,05,44,19.30
2012,03,14,05,45,19.30
2012,03,14,05,46,22.50
2012,03,14,05,47,37.00
2012,03,14,05,48,25.70
2012,03,14,05,49,30.60
2012,03,14,05,50,24.20
2012,03,14,05,51,25.70
2012,03,14,05,52,22.50
2012,03,14,05,53,19.30
2012,03,14,05,54,29.00
2012,03,14,05,55,25.70
2012,03,14,05,56,29.00
2012,03,14,05,57,33.80
2012,03,14,05,58,35.40
2012,03,14,05,59,24.20
2012,03,14,06,00,20.90
2012,03,14,06,01,20.90
2012,03,14,06,02,20.90
2012,03,14,06,03,19.30
2012,03,14,06,04,22.50
2012,03,14,06,05,25.70
2012,03,14,06,06,27.40
2012,03,14,06,07,25.70
2012,03,14,06,08,19.30
2012,03,14,06,09,11.30
2012,03,14,06,10,25.70
2012,03,14,06,11,29.00
2012,03,14,06,12,11.30
2012,03,14,06,13,22.50
2012,03,14,06,14,33.80
2012,03,14,06,15,25.70
2012,03,14,06,16,27.40
2012,03,14,06,17,29.00
2012,03,14,06,18,20.90
2012,03,14,06,19,22.50
2012,03,14,06,20,25.70
2012,03,14,06,21,30.60
2012,03,14,06,22,27.40
2012,03,14,06,23,24.20
2012,03,14,06,24,19.30
2012,03,14,06,25,25.70
2012,03,14,06,26,17.70
2012,03,14,06,27,27.40
2012,03,14,06,28,32.20
2012,03,14,06,29,37.00
2012,03,14,06,30,33.80
2012,03,14,06,31,20.90
2012,03,14,06,32,29.00
2012,03,14,06,33,37.00
2012,03,14,06,34,20.90
2012,03,14,06,35,33.80
2012,03,14,06,36,30.60
2012,03,14,06,37,38.60
2012,03,14,06,38,41.80
2012,03,14,06,39,30.60
2012,03,14,06,40,30.60
2012,03,14,06,41,27.40
2012,03,14,06,42,30.60
2012,03,14,06,43,33.80
2012,03,14,06,44,32.20
2012,03,14,06,45,37.00
2012,03,14,06,46,46.70
2012,03,14,06,47,37.00
2012,03,14,06,48,29.00
2012,03,14,06,49,25.70
2012,03,14,06,50,35.40
2012,03,14,06,51,38.60
2012,03,14,06,52,32.20
2012,03,14,06,53,27.40
2012,03,14,06,54,33.80
2012,03,14,06,55,30.60
2012,03,14,06,56,25.70
2012,03,14,06,57,32.20
2012,03,14,06,58,29.00
2012,03,14,06,59,37.00
2012,03,14,07,00,25.70
2012,03,14,07,01,40.20
2012,03,14,07,02,27.40
2012,03,14,07,03,29.00
2012,03,14,07,04,37.00
2012,03,14,07,05,22.50
2012,03,14,07,06,20.90
2012,03,14,07,07,22.50
2012,03,14,07,08,19.30
2012,03,14,07,09,27.40
2012,03,14,07,10,29.00
2012,03,14,07,11,35.40
2012,03,14,07,12,29.00
2012,03,14,07,13,35.40
2012,03,14,07,14,29.00
2012,03,14,07,15,25.70
2012,03,14,07,16,30.60
2012,03,14,07,17,33.80
2012,03,14,07,18,17.70
2012,03,14,07,19,37.00
2012,03,14,07,20,40.20
2012,03,14,07,21,43.50
2012,03,14,07,22,35.40
2012,03,14,07,23,37.00
2012,03,14,07,24,27.40
2012,03,14,07,25,33.80
2012,03,14,07,26,24.20
2012,03,14,07,27,30.60
2012,03,14,07,28,37.00
2012,03,14,07,29,35.40
2012,03,14,07,30,38.60
2012,03,14,07,31,43.50
2012,03,14,07,32,38.60
2012,03,14,07,33,37.00
2012,03,14,07,34,25.70
2012,03,14,07,35,22.50
2012,03,14,07,36,35.40
2012,03,14,07,37,38.60
2012,03,14,07,38,30.60
2012,03,14,07,39,25.70
2012,03,14,07,40,43.50
2012,03,14,07,41,37.00
2012,03,14,07,42,35.40
2012,03,14,07,43,41.80
2012,03,14,07,44,43.50
2012,03,14,07,45,27.40
2012,03,14,07,46,27.40
2012,03,14,07,47,46.70
2012,03,14,07,48,41.80
2012,03,14,07,49,30.60
2012,03,14,07,50,38.60
2012,03,14,07,51,29.00
2012,03,14,07,52,27.40
2012,03,14,07,53,29.00
2012,03,14,07,54,32.20
2012,03,14,07,55,32.20
2012,03,14,07,56,20.90
2012,03,14,07,57,33.80
2012,03,14,07,58,41.80
2012,03,14,07,59,41.80
2012,03,14,08,00,46.70
2012,03,14,08,01,37.00
2012,03,14,08,02,40.20
2012,03,14,08,03,33.80
2012,03,14,08,04,37.00
2012,03,14,08,05,41.80
2012,03,14,08,06,43.50
2012,03,14,08,07,33.80
2012,03,14,08,08,41.80
2012,03,14,08,09,30.60
2012,03,14,08,10,25.70
2012,03,14,08,11,19.30
2012,03,14,08,12,35.40
2012,03,14,08,13,40.20
2012,03,14,08,14,40.20
2012,03,14,08,15,30.60
2012,03,14,08,16,16.10
2012,03,14,08,17,25.70
2012,03,14,08,18,33.80
2012,03,14,08,19,38.60
2012,03,14,08,20,37.00
2012,03,14,08,21,37.00
2012,03,14,08,22,37.00
2012,03,14,08,23,33.80
2012,03,14,08,24,30.60
2012,03,14,08,25,27.40
2012,03,14,08,26,33.80
2012,03,14,08,27,32.20
2012,03,14,08,28,30.60
2012,03,14,08,29,40.20
2012,03,14,08,30,35.40
2012,03,14,08,31,46.70
2012,03,14,08,32,38.60
2012,03,14,08,33,30.60
2012,03,14,08,34,43.50
2012,03,14,08,35,25.70
2012,03,14,08,36,30.60
2012,03,14,08,37,35.40
2012,03,14,08,38,45.10
2012,03,14,08,39,64.40
2012,03,14,08,40,57.90
2012,03,14,08,41,46.70
2012,03,14,08,42,49.90
2012,03,14,08,43,49.90
2012,03,14,08,44,48.30
2012,03,14,08,45,48.30
2012,03,14,08,46,48.30
2012,03,14,08,47,40.20
2012,03,14,08,48,49.90
2012,03,14,08,49,53.10
2012,03,14,08,50,46.70
2012,03,14,08,51,38.60
2012,03,14,08,52,45.10
2012,03,14,08,53,40.20
2012,03,14,08,54,32.20
2012,03,14,08,55,37.00
2012,03,14,08,56,45.10
2012,03,14,08,57,53.10
2012,03,14,08,58,48.30
2012,03,14,08,59,56.30
2012,03,14,09,00,56.30
2012,03,14,09,01,53.10
2012,03,14,09,02,48.30
2012,03,14,09,03,49.90
2012,03,14,09,04,48.30
2012,03,14,09,05,35.40
2012,03,14,09,06,51.50
2012,03,14,09,07,43.50
2012,03,14,09,08,45.10
2012,03,14,09,09,51.50
2012,03,14,09,10,30.60
2012,03,14,09,11,33.80
2012,03,14,09,12,37.00
2012,03,14,09,13,35.40
2012,03,14,09,14,37.00
2012,03,14,09,15,29.00
2012,03,14,09,16,43.50
2012,03,14,09,17,49.90
2012,03,14,09,18,48.30
2012,03,14,09,19,46.70
2012,03,14,09,20,49.90
2012,03,14,09,21,51.50
2012,03,14,09,22,49.90
2012,03,14,09,23,49.90
2012,03,14,09,24,37.00
2012,03,14,09,25,41.80
2012,03,14,09,26,53.10
2012,03,14,09,27,40.20
2012,03,14,09,28,46.70
2012,03,14,09,29,30.60
2012,03,14,09,30,49.90
2012,03,14,09,31,27.40
2012,03,14,09,32,43.50
2012,03,14,09,33,43.50
2012,03,14,09,34,51.50
2012,03,14,09,35,53.10
2012,03,14,09,36,53.10
2012,03,14,09,37,45.10
2012,03,14,09,38,41.80
2012,03,14,09,39,46.70
2012,03,14,09,40,45.10
2012,03,14,09,41,29.00
2012,03,14,09,42,38.60
2012,03,14,09,43,48.30
2012,03,14,09,44,45.10
2012,03,14,09,45,43.50
2012,03,14,09,46,45.10
2012,03,14,09,47,40.20
2012,03,14,09,48,41.80
2012,03,14,09,49,40.20
2012,03,14,09,50,48.30
2012,03,14,09,51,38.60
2012,03,14,09,52,38.60
2012,03,14,09,53,41.80
2012,03,14,09,54,48.30
2012,03,14,09,55,35.40
2012,03,14,09,56,33.80
2012,03,14,09,57,41.80
2012,03,14,09,58,38.60
2012,03,14,09,59,46.70
2012,03,14,10,00,46.70
2012,03,14,10,01,51.50
2012,03,14,10,02,33.80
2012,03,14,10,03,32.20
2012,03,14,10,04,32.20
2012,03,14,10,05,45.10
2012,03,14,10,06,53.10
2012,03,14,10,07,53.10
2012,03,14,10,08,45.10
2012,03,14,10,09,48.30
2012,03,14,10,10,41.80
2012,03,14,10,11,38.60
2012,03,14,10,12,43.50
2012,03,14,10,13,38.60
2012,03,14,10,14,48.30
2012,03,14,10,15,38.60
2012,03,14,10,16,46.70
2012,03,14,10,17,37.00
2012,03,14,10,18,49.90
2012,03,14,10,19,51.50
2012,03,14,10,20,45.10
2012,03,14,10,21,41.80
2012,03,14,10,22,48.30
2012,03,14,10,23,38.60
2012,03,14,10,24,35.40
2012,03,14,10,25,24.20
2012,03,14,10,26,53.10
2012,03,14,10,27,38.60
2012,03,14,10,28,35.40
2012,03,14,10,29,33.80
2012,03,14,10,30,33.80
2012,03,14,10,31,43.50
2012,03,14,10,32,48.30
2012,03,14,10,33,37.00
2012,03,14,10,34,32.20
2012,03,14,10,35,43.50
2012,03,14,10,36,41.80
2012,03,14,10,37,33.80
2012,03,14,10,38,33.80
2012,03,14,10,39,49.90
2012,03,14,10,40,37.00
2012,03,14,10,41,46.70
2012,03,14,10,42,40.20
2012,03,14,10,43,53.10
2012,03,14,10,44,41.80
2012,03,14,10,45,37.00
2012,03,14,10,46,38.60
2012,03,14,10,47,41.80
2012,03,14,10,48,49.90
2012,03,14,10,49,33.80
2012,03,14,10,50,59.50
2012,03,14,10,51,51.50
2012,03,14,10,52,48.30
2012,03,14,10,53,49.90
2012,03,14,10,54,41.80
2012,03,14,10,55,32.20
2012,03,14,10,56,38.60
2012,03,14,10,57,40.20
2012,03,14,10,58,38.60
2012,03,14,10,59,49.90
2012,03,14,11,00,35.40
2012,03,14,11,01,30.60
2012,03,14,11,02,53.10
2012,03,14,11,03,45.10
2012,03,14,11,04,37.00
2012,03,14,11,05,33.80
2012,03,14,11,06,53.10
2012,03,14,11,07,41.80
2012,03,14,11,08,37.00
2012,03,14,11,09,35.40
2012,03,14,11,10,40.20
2012,03,14,11,11,49.90
2012,03,14,11,12,49.90
2012,03,14,11,13,53.10
2012,03,14,11,14,46.70
2012,03,14,11,15,35.40
2012,03,14,11,16,35.40
2012,03,14,11,17,33.80
2012,03,14,11,18,33.80
2012,03,14,11,19,38.60
2012,03,14,11,20,43.50
2012,03,14,11,21,33.80
2012,03,14,11,22,25.70
2012,03,14,11,23,33.80
2012,03,14,11,24,35.40
2012,03,14,11,25,32.20
2012,03,14,11,26,40.20
2012,03,14,11,27,49.90
2012,03,14,11,28,45.10
2012,03,14,11,29,41.80
2012,03,14,11,30,48.30
2012,03,14,11,31,43.50
2012,03,14,11,32,38.60
2012,03,14,11,33,32.20
2012,03,14,11,34,45.10
2012,03,14,11,35,37.00
2012,03,14,11,36,37.00
2012,03,14,11,37,32.20
2012,03,14,11,38,30.60
2012,03,14,11,39,32.20
2012,03,14,11,40,40.20
2012,03,14,11,41,43.50
2012,03,14,11,42,32.20
2012,03,14,11,43,38.60
2012,03,14,11,44,37.00
2012,03,14,11,45,40.20
2012,03,14,11,46,37.00
2012,03,14,11,47,33.80
2012,03,14,11,48,33.80
2012,03,14,11,49,37.00
2012,03,14,11,50,32.20
2012,03,14,11,51,41.80
2012,03,14,11,52,40.20
2012,03,14,11,53,40.20
2012,03,14,11,54,40.20
2012,03,14,11,55,29.00
2012,03,14,11,56,27.40
2012,03,14,11,57,30.60
2012,03,14,11,58,25.70
2012,03,14,11,59,25.70
2012,03,14,12,00,27.40
2012,03,14,12,01,24.20
2012,03,14,12,02,25.70
2012,03,14,12,03,25.70
2012,03,14,12,04,35.40
2012,03,14,12,05,32.20
2012,03,14,12,06,30.60
2012,03,14,12,07,40.20
2012,03,14,12,08,27.40
2012,03,14,12,09,29.00
2012,03,14,12,10,32.20
2012,03,14,12,11,33.80
2012,03,14,12,12,37.00
2012,03,14,12,13,20.90
2012,03,14,12,14,19.30
2012,03,14,12,15,25.70
2012,03,14,12,16,24.20
2012,03,14,12,17,22.50
2012,03,14,12,18,37.00
2012,03,14,12,19,32.20
2012,03,14,12,20,37.00
2012,03,14,12,21,40.20
2012,03,14,12,22,29.00
2012,03,14,12,23,32.20
2012,03,14,12,24,32.20
2012,03,14,12,25,38.60
2012,03,14,12,26,35.40
2012,03,14,12,27,30.60
2012,03,14,12,28,37.00
2012,03,14,12,29,29.00
2012,03,14,12,30,30.60
2012,03,14,12,31,30.60
2012,03,14,12,32,24.20
2012,03,14,12,33,29.00
2012,03,14,12,34,37.00
2012,03,14,12,35,22.50
2012,03,14,12,36,35.40
2012,03,14,12,37,30.60
2012,03,14,12,38,29.00
2012,03,14,12,39,32.20
2012,03,14,12,40,35.40
2012,03,14,12,41,30.60
2012,03,14,12,42,40.20
2012,03,14,12,43,41.80
2012,03,14,12,44,38.60
2012,03,14,12,45,32.20
2012,03,14,12,46,27.40
2012,03,14,12,47,27.40
2012,03,14,12,48,22.50
2012,03,14,12,49,22.50
2012,03,14,12,50,16.10
2012,03,14,12,51,29.00
2012,03,14,12,52,27.40
2012,03,14,12,53,27.40
2012,03,14,12,54,35.40
2012,03,14,12,55,35.40
2012,03,14,12,56,33.80
2012,03,14,12,57,38.60
2012,03,14,12,58,30.60
2012,03,14,12,59,35.40
2012,03,14,13,00,29.00
2012,03,14,13,01,35.40
2012,03,14,13,02,24.20
2012,03,14,13,03,37.00
2012,03,14,13,04,35.40
2012,03,14,13,05,20.90
2012,03,14,13,06,35.40
2012,03,14,13,07,29.00
2012,03,14,13,08,33.80
2012,03,14,13,09,22.50
2012,03,14,13,10,41.80
2012,03,14,13,11,37.00
2012,03,14,13,12,37.00
2012,03,14,13,13,27.40
2012,03,14,13,14,24.20
2012,03,14,13,15,27.40
2012,03,14,13,16,24.20
2012,03,14,13,17,24.20
2012,03,14,13,18,20.90
2012,03,14,13,19,29.00
2012,03,14,13,20,35.40
2012,03,14,13,21,33.80
2012,03,14,13,22,41.80
2012,03,14,13,23,41.80
2012,03,14,13,24,27.40
2012,03,14,13,25,35.40
2012,03,14,13,26,37.00
2012,03,14,13,27,33.80
2012,03,14,13,28,33.80
2012,03,14,13,29,27.40
2012,03,14,13,30,35.40
2012,03,14,13,31,33.80
2012,03,14,13,32,37.00
2012,03,14,13,33,30.60
2012,03,14,13,34,29.00
2012,03,14,13,35,35.40
2012,03,14,13,36,35.40
2012,03,14,13,37,25.70
2012,03,14,13,38,25.70
2012,03,14,13,39,29.00
2012,03,14,13,40,25.70
2012,03,14,13,41,24.20
2012,03,14,13,42,29.00
2012,03,14,13,43,29.00
2012,03,14,13,44,25.70
2012,03,14,13,45,29.00
2012,03,14,13,46,30.60
2012,03,14,13,47,33.80
2012,03,14,13,48,25.70
2012,03,14,13,49,30.60
2012,03,14,13,50,32.20
2012,03,14,13,51,22.50
2012,03,14,13,52,33.80
2012,03,14,13,53,30.60
2012,03,14,13,54,32.20
2012,03,14,13,55,33.80
2012,03,14,13,56,25.70
2012,03,14,13,57,24.20
2012,03,14,13,58,12.90
2012,03,14,13,59,20.90
2012,03,14,14,00,22.50
2012,03,14,14,01,32.20
2012,03,14,14,02,29.00
2012,03,14,14,03,29.00
2012,03,14,14,04,27.40
2012,03,14,14,05,25.70
2012,03,14,14,06,27.40
2012,03,14,14,07,24.20
2012,03,14,14,08,24.20
2012,03,14,14,09,22.50
2012,03,14,14,10,25.70
2012,03,14,14,11,30.60
2012,03,14,14,12,25.70
2012,03,14,14,13,20.90
2012,03,14,14,14,20.90
2012,03,14,14,15,20.90
2012,03,14,14,16,24.20
2012,03,14,14,17,14.50
2012,03,14,14,18,17.70
2012,03,14,14,19,22.50
2012,03,14,14,20,20.90
2012,03,14,14,21,29.00
2012,03,14,14,22,24.20
2012,03,14,14,23,24.20
2012,03,14,14,24,22.50
2012,03,14,14,25,20.90
2012,03,14,14,26,20.90
2012,03,14,14,27,19.30
2012,03,14,14,28,17.70
2012,03,14,14,29,20.90
2012,03,14,14,30,17.70
2012,03,14,14,31,20.90
2012,03,14,14,32,24.20
2012,03,14,14,33,22.50
2012,03,14,14,34,19.30
2012,03,14,14,35,9.60
2012,03,14,14,36,9.60
2012,03,14,14,37,17.70
2012,03,14,14,38,20.90
2012,03,14,14,39,14.50
2012,03,14,14,40,22.50
2012,03,14,14,41,16.10
2012,03,14,14,42,19.30
2012,03,14,14,43,16.10
2012,03,14,14,44,19.30
2012,03,14,14,45,16.10
2012,03,14,14,46,9.60
2012,03,14,14,47,22.50
2012,03,14,14,48,22.50
2012,03,14,14,49,16.10
2012,03,14,14,50,11.30
2012,03,14,14,51,9.60
2012,03,14,14,52,11.30
2012,03,14,14,53,14.50
2012,03,14,14,54,11.30
2012,03,14,14,55,14.50
2012,03,14,14,56,14.50
2012,03,14,14,57,11.30
2012,03,14,14,58,16.10
2012,03,14,14,59,14.50
2012,03,14,15,00,17.70
2012,03,14,15,01,16.10
2012,03,14,15,02,16.10
2012,03,14,15,03,11.30
2012,03,14,15,04,16.10
2012,03,14,15,05,17.70
2012,03,14,15,06,16.10
2012,03,14,15,07,14.50
2012,03,14,15,08,17.70
2012,03,14,15,09,16.10
2012,03,14,15,10,14.50
2012,03,14,15,11,11.30
2012,03,14,15,12,14.50
2012,03,14,15,13,12.90
2012,03,14,15,14,14.50
2012,03,14,15,15,14.50
2012,03,14,15,16,11.30
2012,03,14,15,17,16.10
2012,03,14,15,18,14.50
2012,03,14,15,19,11.30
2012,03,14,15,20,9.60
2012,03,14,15,21,14.50
2012,03,14,15,22,11.30
2012,03,14,15,23,11.30
2012,03,14,15,24,14.50
2012,03,14,15,25,16.10
2012,03,14,15,26,11.30
2012,03,14,15,27,11.30
2012,03,14,15,28,11.30
2012,03,14,15,29,9.60
2012,03,14,15,30,17.70
2012,03,14,15,31,14.50
2012,03,14,15,32,19.30
2012,03,14,15,33,17.70
2012,03,14,15,34,19.30
2012,03,14,15,35,14.50
2012,03,14,15,36,17.70
2012,03,14,15,37,16.10
2012,03,14,15,38,16.10
2012,03,14,15,39,9.60
2012,03,14,15,40,9.60
2012,03,14,15,41,16.10
2012,03,14,15,42,16.10
2012,03,14,15,43,9.60
2012,03,14,15,44,8.10
2012,03,14,15,45,19.30
2012,03,14,15,46,9.60
2012,03,14,15,47,9.60
2012,03,14,15,48,9.60
2012,03,14,15,49,9.60
2012,03,14,15,50,11.30
2012,03,14,15,51,17.70
2012,03,14,15,52,19.30
2012,03,14,15,53,12.90
2012,03,14,15,54,19.30
2012,03,14,15,55,16.10
2012,03,14,15,56,17.70
2012,03,14,15,57,17.70
2012,03,14,15,58,17.70
2012,03,14,15,59,17.70
2012,03,14,16,00,17.70
2012,03,14,16,01,16.10
2012,03,14,16,02,19.30
2012,03,14,16,03,14.50
2012,03,14,16,04,19.30
2012,03,14,16,05,19.30
2012,03,14,16,06,19.30
2012,03,14,16,07,14.50
2012,03,14,16,08,14.50
2012,03,14,16,09,9.60
2012,03,14,16,10,14.50
2012,03,14,16,11,14.50
2012,03,14,16,12,8.10
2012,03,14,16,13,9.60
2012,03,14,16,14,8.10
2012,03,14,16,15,6.40
2012,03,14,16,16,4.80
2012,03,14,16,17,11.30
2012,03,14,16,18,16.10
2012,03,14,16,19,11.30
2012,03,14,16,20,17.70
2012,03,14,16,21,12.90
2012,03,14,16,22,16.10
2012,03,14,16,23,14.50
2012,03,14,16,24,17.70
2012,03,14,16,25,11.30
2012,03,14,16,26,11.30
2012,03,14,16,27,11.30
2012,03,14,16,28,16.10
2012,03,14,16,29,14.50
2012,03,14,16,30,14.50
2012,03,14,16,31,8.10
2012,03,14,16,32,16.10
2012,03,14,16,33,11.30
2012,03,14,16,34,9.60
2012,03,14,16,35,16.10
2012,03,14,16,36,19.30
2012,03,14,16,37,16.10
2012,03,14,16,38,14.50
2012,03,14,16,39,12.90
2012,03,14,16,40,12.90
2012,03,14,16,41,6.40
2012,03,14,16,42,9.60
2012,03,14,16,43,11.30
2012,03,14,16,44,12.90
2012,03,14,16,45,6.40
2012,03,14,16,46,6.40
2012,03,14,16,47,16.10
2012,03,14,16,48,16.10
2012,03,14,16,49,16.10
2012,03,14,16,50,9.60
2012,03,14,16,51,19.30
2012,03,14,16,52,16.10
2012,03,14,16,53,19.30
2012,03,14,16,54,14.50
2012,03,14,16,55,19.30
2012,03,14,16,56,16.10
2012,03,14,16,57,19.30
2012,03,14,16,58,14.50
2012,03,14,16,59,11.30
2012,03,14,17,00,11.30
2012,03,14,17,01,14.50
2012,03,14,17,02,11.30
2012,03,14,17,03,9.60
2012,03,14,17,04,6.40
2012,03,14,17,05,6.40
2012,03,14,17,06,9.60
2012,03,14,17,07,9.60
2012,03,14,17,08,8.10
2012,03,14,17,09,4.80
2012,03,14,17,10,8.10
2012,03,14,17,11,11.30
2012,03,14,17,12,17.70
2012,03,14,17,13,11.30
2012,03,14,17,14,9.60
2012,03,14,17,15,14.50
2012,03,14,17,16,12.90
2012,03,14,17,17,11.30
2012,03,14,17,18,17.70
2012,03,14,17,19,11.30
2012,03,14,17,20,14.50
2012,03,14,17,21,11.30
2012,03,14,17,22,9.60
2012,03,14,17,23,9.60
2012,03,14,17,24,8.10
2012,03,14,17,25,9.60
2012,03,14,17,26,8.10
2012,03,14,17,27,9.60
2012,03,14,17,28,8.10
2012,03,14,17,29,6.40
2012,03,14,17,30,8.10
2012,03,14,17,31,6.40
2012,03,14,17,32,9.60
2012,03,14,17,33,8.10
2012,03,14,17,34,9.60
2012,03,14,17,35,11.30
2012,03,14,17,36,14.50
2012,03,14,17,37,11.30
2012,03,14,17,38,12.90
2012,03,14,17,39,11.30
2012,03,14,17,40,9.60
2012,03,14,17,41,8.10
2012,03,14,17,42,11.30
2012,03,14,17,43,9.60
2012,03,14,17,44,9.60
2012,03,14,17,45,6.40
2012,03,14,17,46,4.80
2012,03,14,17,47,9.60
2012,03,14,17,48,8.10
2012,03,14,17,49,4.80
2012,03,14,17,50,6.40
2012,03,14,17,51,6.40
2012,03,14,17,52,8.10
2012,03,14,17,53,8.10
2012,03,14,17,54,4.80
2012,03,14,17,55,6.40
2012,03,14,17,56,4.80
2012,03,14,17,57,4.80
2012,03,14,17,58,6.40
2012,03,14,17,59,4.80
2012,03,14,18,00,4.80
2012,03,14,18,01,4.80
2012,03,14,18,02,4.80
2012,03,14,18,03,3.20
2012,03,14,18,04,6.40
2012,03,14,18,05,6.40
2012,03,14,18,06,6.40
2012,03,14,18,07,8.10
2012,03,14,18,08,4.80
2012,03,14,18,09,6.40
2012,03,14,18,10,6.40
2012,03,14,18,11,8.10
2012,03,14,18,12,8.10
2012,03,14,18,13,9.60
2012,03,14,18,14,6.40
2012,03,14,18,15,8.10
2012,03,14,18,16,6.40
2012,03,14,18,17,16.10
2012,03,14,18,18,9.60
2012,03,14,18,19,6.40
2012,03,14,18,20,8.10
2012,03,14,18,21,9.60
2012,03,14,18,22,11.30
2012,03,14,18,23,9.60
2012,03,14,18,24,8.10
2012,03,14,18,25,6.40
2012,03,14,18,26,8.10
2012,03,14,18,27,11.30
2012,03,14,18,28,9.60
2012,03,14,18,29,16.10
2012,03,14,18,30,14.50